Regional Weather Roundup
Issued by NWS Binghamton, NY

Home | Current Version | Previous Version | Text Only | Print | Product List | Glossary On
Versions: 1 2 3 4 5 6 7 8 9 10 11 12 13 14 15 16 17 18 19 20 21 22 23 24 25 26 27 28 29 30 31 32 33 34 35 36 37 38 39 40 41 42 43 44 45 46 47 48 49 50
000
ASUS41 KBGM 032210
RWRBGM
RWRBGM
BINGHAMTON REGIONAL WEATHER ROUNDUP
NATIONAL WEATHER SERVICE BINGHAMTON NY
600 PM EDT SUN MAY 03 2015

Note: "fair" indicates few or no clouds below 12,000 feet with no
significant weather and/or obstructions to visibility.

* = Station(s) that does not report precipitation, such as rain,
snow, etc, also no thunder or fog.

!NYZ009-015>018-022>025-036-037-044>046-055>057-062-032300
...CENTRAL NEW YORK...

CITY           SKY/WX    TMP DP  RH WIND       PRES   REMARKS
BINGHAMTON     PTSUNNY   73  35  25 NW8       30.08R
CORTLAND       FAIR      73  37  27 W5        30.08R
DANSVILLE      MOSUNNY   77  37  23 NW7       30.04R
ELMIRA         PTSUNNY   76  37  24 E5        30.04S
ITHACA         MOSUNNY   76  37  24 VRB7      30.07S
MONTICELLO     PTSUNNY   73  34  23 W9        30.09R
PENN YAN       SUNNY     74  41  30 VRB6      30.06R
ROME           MOSUNNY   75  38  26 W14       30.04S
SYRACUSE       MOSUNNY   76  37  24 NW7       30.04R
$$

!PAZ038>040-043-044-047-048-072-032300
...NORTHEAST PENNSYLVANIA...

CITY           SKY/WX    TMP DP  RH WIND       PRES   REMARKS
HAZLETON       SUNNY     73  32  21 W5        30.12R
SCRANTON       SUNNY     77  32  19 VRB5      30.06R
TOWANDA*       SUNNY     79  36  21 MISG      30.05S VSB 1/4
$$
&&
KEY
WCI = WIND CHILL INDEX
VSB = VISIBILITY
HX  = HEAT INDEX
$$



USA.gov is the U.S. government's official web portal to all federal, state and local government web resources and services.